Regional Weather Roundup
Issued by NWS San Angelo, TX

Home | Current Version | Previous Version | Text Only | Print | Product List | Glossary On
Versions: 1 2 3 4 5 6 7 8 9 10 11 12 13 14 15 16 17 18 19 20 21 22 23 24 25 26 27 28 29 30 31 32 33 34 35 36 37 38 39 40 41 42 43 44 45 46 47 48 49 50
000
ASUS44 KSJT 010811
RWRSJT
WEST CENTRAL TEXAS REGIONAL WEATHER ROUNDUP
NATIONAL WEATHER SERVICE SAN ANGELO TX
300 AM CDT WED JUN 01 2016

NOTE: "FAIR" INDICATES FEW OR NO CLOUDS BELOW 12,000 FEET WITH NO
SIGNIFICANT WEATHER AND/OR OBSTRUCTIONS TO VISIBILITY.

TXZ049-054-064>066-071>073-076>078-098-099-113-114-127-128-139-140-
154-155-168>170-010900
...LOCATIONS ACROSS WEST CENTRAL TEXAS...

CITY           SKY/WX    TMP DP  RH WIND       PRES   REMARKS
SAN ANGELO     TSTM      66  65  96 NW13      29.95R VSB 1/2
ABILENE        CLOUDY    68  65  90 E3        29.94F
DYESS AFB      CLOUDY    68  63  83 NE3       29.91F
JUNCTION       CLOUDY    69  67  93 W7        29.92R
SWEETWATER     CLOUDY    65  65 100 E7        29.95F
BROWNWOOD      CLOUDY    66  66 100 E3        29.92R
COLEMAN        CLOUDY    68  66  96 CALM      29.93S
SONORA         PTCLDY    70  68  94 S5        29.97R
OZONA          PTSUNNY   63  59  88 N6        29.97S
BRADY          NOT AVBL
$$

TEXAS PANHANDLE/OKLAHOMA PANHANDLE

CITY           SKY/WX    TMP DP  RH WIND       PRES   REMARKS
AMARILLO       CLOUDY    60  57  89 E6        30.04S
BORGER         CLOUDY    62  56  80 NE6       30.04R
CANADIAN       CLOUDY    60  58  94 CALM      30.01S
DALHART        CLOUDY    61  53  75 E7        30.10R
DUMAS          CLOUDY    58  54  84 CALM      30.07S
GUYMON         NOT AVBL
HEREFORD       CLOUDY    63  60  91 CALM      30.06S
PAMPA          CLOUDY    60  57  89 E8        30.05S
PERRYTON       CLOUDY    61  58  90 NE8       30.05S
$$

SOUTHERN PANHANDLE/SOUTH PLAINS/ROLLING PLAINS

CITY           SKY/WX    TMP DP  RH WIND       PRES   REMARKS
LUBBOCK        LGT RAIN  59  57  93 NW16      29.99F
SNYDER           N/A     64  63  96 E9        29.94F
CHILDRESS      CLOUDY    66  64  93 NW3       29.96F
SEMINOLE       CLOUDY    60  55  83 N7        30.01F
$$

PERMIAN BASIN

CITY           SKY/WX    TMP DP  RH WIND       PRES   REMARKS
MIDLAND        CLOUDY    65  59  81 SE5       29.92F
ODESSA         CLOUDY    64  57  78 CALM      29.95R
WINK           MOCLDY    63  60  90 N8        29.94F
$$

FAR WEST/SOUTHWEST MOUNTAINS/TRANS PECOS

CITY           SKY/WX    TMP DP  RH WIND       PRES   REMARKS
ALPINE         CLOUDY    60  53  78 NW3       30.09R
DRYDEN           N/A     66  60  81 SE5       29.90S
EL PASO        MOCLDY    69  43  38 E8        29.99R
FORT STOCKTON  NOT AVBL
GUADALUPE PASS NOT AVBL
MARFA          CLOUDY    57  55  93 NE6       30.05R
PECOS          CLOUDY    64  60  87 E5        29.97S
$$

DALLAS/FORT WORTH METROPLEX

CITY           SKY/WX    TMP DP  RH WIND       PRES   REMARKS
DFW AIRPORT    CLOUDY    69  65  86 NE5       29.89R
FTW MEACHAM    CLOUDY    68  65  90 NE6       29.88S
DAL-EXECUTIVE  CLOUDY    67  65  93 NE5       29.89R
GRAND PRAIRIE  CLOUDY    68  68 100 N3        29.89S
ADDISON        CLOUDY    68  68 100 CALM      29.92R
MESQUITE       CLOUDY    67  67 100 N3        29.91R
LANCASTER      CLOUDY    67  65  93 CALM      29.90R
$$

NORTH CENTRAL TEXAS

CITY           SKY/WX    TMP DP  RH WIND       PRES   REMARKS
SHRMAN/DENISON CLOUDY    64  61  91 NE5       29.95S
GAINESVILLE    LGT RAIN  65  64  96 N5        29.95R
BRIDGEPORT     CLOUDY    66  66 100 CALM      29.93S
DENTON         CLOUDY    67  65  93 N6        29.90S
WAXAHACHIE     CLOUDY    67  67 100 CALM      29.90R FOG
GRANBURY       CLOUDY    68  66  92 SW3       29.89F
$$

WESTERN NORTH TEXAS

CITY           SKY/WX    TMP DP  RH WIND       PRES   REMARKS
WICHITA FALLS  CLOUDY    65  63  93 E6        29.90F
VERNON         PTSUNNY   68  62  82 CALM      29.94R
BRECKENRIDGE   CLOUDY    67  66  96 E5        29.92R
COMANCHE       CLOUDY    66  66 100 CALM      29.92S FOG
$$

CENTRAL AND SOUTH CENTRAL TEXAS

CITY           SKY/WX    TMP DP  RH WIND       PRES   REMARKS
AUSTIN/BERGSTM FOG       67  67 100 NE5       29.87R VSB 1/4
WACO           CLOUDY    69  66  90 CALM      29.89R
HILLSBORO      PTSUNNY   67  66  95 E7        29.88S
TEMPLE         CLOUDY    69  68  96 CALM      29.90R
KILLEEN-GRAY   MOCLDY    68  66  94 N2        29.88R
FORT HOOD      CLOUDY    67  67  99 NE6       29.87R
GEORGETOWN     CLOUDY    68  66  94 NE3       29.88R VSB 3/4
LAGO VISTA     PTSUNNY   67  66  96 N6        29.90R FOG
SAN MARCOS     MOCLDY    66  64  94 CALM      29.87R
NEW BRAUNFELS  PTCLDY    66  65  96 W3        29.85R
RANDOLPH AFB   CLOUDY    68  68 100 NW5       29.86R
SAN ANTONIO    MOCLDY    68  66  93 CALM      29.86S
STINSON        PTCLDY    69  66  90 CALM      29.84S
PLEASANTON     NOT AVBL
LA GRANGE        N/A     70  69  98 CALM      29.83R
GIDDINGS       CLOUDY    67  67  98 CALM      29.89R
$$

EAST TEXAS

CITY           SKY/WX    TMP DP  RH WIND       PRES   REMARKS
PARIS          CLOUDY    66  57  72 E6        29.93R
CLARKSVILLE    NOT AVBL
TYLER          CLOUDY    70  65  84 E3        29.88R
LONGVIEW       MOCLDY    68  67  96 E3        29.88R
PALESTINE      CLOUDY    68  68  99 CALM      29.89R
NACOGDOCHES    CLOUDY    70  66  88 CALM      29.88R
$$

TEXAS HILL COUNTRY AND EDWARDS PLATEAU

CITY           SKY/WX    TMP DP  RH WIND       PRES   REMARKS
LLANO          MOSUNNY   66  66 100 CALM      29.92S
HORSESHOE BAY  CLOUDY    68  67  97 CALM      29.89F
KERRVILLE      PTCLDY    65  64  95 N3        29.90R
FREDERICKSBRG  CLEAR     65  63  95 SW3       29.90R
ROCKSPRINGS    CLOUDY    68  64  88 S7        29.97R
HONDO          CLOUDY    70  68  93 CALM      29.89R
UVALDE         CLOUDY    70  68  93 CALM      29.90R
DEL RIO        CLOUDY    72  69  90 SE3       29.88S
$$

SOUTHEAST TEXAS

CITY           SKY/WX    TMP DP  RH WIND       PRES   REMARKS
COLLEGE STN    CLOUDY    70  68  93 NE6       29.85F
CALDWELL       CLOUDY    68  68 100 NE3       29.88F
CROCKETT       CLOUDY    70  68  94 NE3       29.90S
BRENHAM        CLOUDY    73  73  99 CALM      29.86R FOG
HUNTSVILLE     MOCLDY    71  69  93 CALM      29.87S
CONROE         CLOUDY    71  70  96 NW3       29.87R FOG
HOUSTON BUSH   CLOUDY    75  71  87 CALM      29.84R
HOUSTON HOBBY  CLOUDY    76  72  87 E3        29.83R
PERLAND        CLOUDY    77  72  84 SE6       29.84S
WHARTON        PTSUNNY   70  68  94 N3        29.84R
$$

THE UPPER TEXAS COAST

CITY           SKY/WX    TMP DP  RH WIND       PRES   REMARKS
ORANGE         MOSUNNY   77  71  82 SE3       29.86S
PORT ARTHUR    CLOUDY    76  70  82 S6        29.84S
GALVESTON      MOCLDY    79  74  84 SE12      29.85R
ANGLETON       CLOUDY    77  75  93 S5        29.83R
BAY CITY       CLOUDY    74  73  95 CALM      29.82S
$$

TEXAS COASTAL BEND, RIO GRANDE PLAINS DEEP SOUTH TEXAS

CITY           SKY/WX    TMP DP  RH WIND       PRES   REMARKS
VICTORIA       CLOUDY    71  69  93 CALM      29.82S
BEEVILLE       FAIR      64  64 100 CALM      29.81R
ROCKPORT       CLOUDY    79  69  71 SE10      29.77S
PORT ARANSAS   CLOUDY    78  70  76 S13       29.79R
PORT LAVACA    CLOUDY    75  74  95 CALM      29.81F
CORPUS CHRISTI CLOUDY    75  69  81 SE3       29.79R
KINGSVILLE NAS   N/A    N/A N/A N/A MISG      29.80R
COTULLA        CLOUDY    74  71  91 N5        29.86R
LAREDO         MOCLDY    72  69  90 S10       29.82F
BROWNSVILLE    TSTM      73  71  93 E12G22    29.87F
PORT ISABEL    RAIN      75  71  87 E15       29.83F FOG
HEBBRONVILLE   MOSUNNY   70  68  92 S5        29.83R
MCALLEN        TSTM      75  69  81 E20G25    29.75F
WESLACO        TSTM      73  67  82 SE20G32   29.76F
FALFURRIAS     CLOUDY    74  70  87 S6        29.79R
EDINBURG       CLOUDY    74  69  83 S15G24    29.76R
$$



USA.gov is the U.S. government's official web portal to all federal, state and local government web resources and services.